Starlink 5260

operational
NORAD ID: 55275 Int'l Des: 2023-010 Owner: SPXS Country: US Constellation: starlink
LEOCIRCULAR

About Starlink 5260

Description loading...

Live Position

Loading 3D Globe...

Upcoming Passes

Altitude History

Altitude vs Time

uPlot chart will show altitude changes over time

Two-Line Element Set

1 55275U 23010G 26102.78573237 .00003866 00000-0 33158-3 0 9999
2 55275 70.0009 298.6012 0002590 264.1271 95.9592 14.98335553178381
Epoch: Apr 12, 2026 • Age: 10 hours

Current Status

Altitude 576.3 km
Velocity 7.57 km/s
Sub-Earth Point -12.51°S, 159.26°W
Launch Date Jan 19, 2023
Age 3.2 years
Type internet

Technical Details

Classification Payload
Mass 305.00 kg
Dry Mass 290.00 kg
Total Mass 305.00 kg
Length 0.20 m
Diameter 2.80 m
Span 9.00 m
Shape Box + pan
Manufacturer SPXS
Bus Type Starlink
Phase Status In Orbit
Owner/State SPXS/US

Large Constellations

Loading constellations...